User: anonymous
Location: Caribou
(46.8667°N, 68.0167°W)
Time: 17:52:50
(UTC-04:00)
Language:

SL-08 RB Rocket - Orbit

View from above orbital plane
View from above orbital plane
View from above satellite
View from above satellite

Ground track
Ground track

The orbit data is extracted from the following two-line orbital elements,

1 26387U 00033D   14106.30075973  .00000616  00000-0  11757-3 0  4776
2 26387 098.1100 174.6394 0027737 051.5853 350.2629 14.67201532738011
Epoch (UTC): 16 April 2014 07:13:05
Eccentricity: 0.0027737
inclination: 98.1100°
perigee height: 650 km
apogee height: 689 km
right ascension of ascending node: 174.6394°
argument of perigee: 51.5853°
revolutions per day: 14.67201532
mean anomaly at epoch: 350.2629°
orbit number at epoch: 73801

The dashed part of the orbit path shows where the satellite is in the earth's shadow,  

DLR